Hourly Data Report for October 14, 2013

All times are specified in Local Standard Time (LST). Add 1 hour to adjust for Daylight Saving Time where and when it is observed.

KUGAARUK CLIMATE
NUNAVUT

68°32'15.060" N
89°47'47.020" W
15.80 m
2303094
71407
NBB

Download Data

Hourly Data (October 2013)
Hourly Data Report for October 14, 2013
Temp Definition
°C
Dew Point Temp Definition
°C
Rel Hum Definition
%
Wind Dir Definition
10's deg

Wind Spd Definition
km/h
Visibility Definition
km
Stn Press Definition
kPa
Hmdx Definition


Wind Chill Definition


Weather Definition


TIME
00:00 -2.9 -3.3 97 2 22   100.66   -9 LegendNANA
01:00 -2.7 -3.5 94 2 26   100.61   -10 LegendNANA
02:00 -2.5 -3.4 94 2 19   100.61   -8 LegendNANA
03:00 -1.6 -3.1 89 3 17   100.62   -7 LegendNANA
04:00 -1.2 -2.8 89 1 28   100.58   -8 LegendNANA
05:00 -1.4 -3.0 89 2 28   100.56   -8 LegendNANA
06:00 -1.5 -2.9 90 1 35   100.51   -9 LegendNANA
07:00 -1.4 -3.2 88 1 35   100.48   -9 LegendNANA
08:00 -1.2 -3.1 87 2 35   100.45   -9 LegendNANA
09:00 -1.3 -3.2 87 1 37   100.40   -9 LegendNANA
10:00 -1.4 -3.4 86 1 37   100.37   -9 LegendNANA
11:00 -1.7 -3.3 89 2 33   100.38   -9 LegendNANA
12:00 -1.8 -3.3 89 1 37   100.37   -10 LegendNANA
13:00 -1.8 -3.4 89 1 35   100.38   -9 LegendNANA
14:00 -1.9 -3.6 88 1 35   100.39   -9 LegendNANA
15:00 -1.9 -3.4 89 1 33   100.41   -9 LegendNANA
16:00 -2.0 -3.2 91 1 33   100.41   -9 LegendNANA
17:00 -2.0 -3.5 89 1 28   100.44   -9 LegendNANA
18:00 -1.8 -3.5 88 36 20   100.42   -8 LegendNANA
19:00 -1.8 -3.4 89 36 17   100.41   -7 LegendNANA
20:00 -1.8 -3.5 88 35 19   100.35   -7 LegendNANA
21:00 -2.0 -3.7 88 34 15   100.32   -7 LegendNANA
22:00 -1.9 -3.6 88 35 17   100.31   -7 LegendNANA
23:00 -2.0 -3.5 89 34 11   100.29   -6 LegendNANA

Notes on Data Quality.

Legend

  • E = Estimated
  • M = Missing
  • NA = Not Available
  • ‡ = Partner data that is not subject to review by the National Climate Archives
Date modified: